This demonstration page uses our WeatherBlox Daily Observations layout. Learn more.

Left ArrowRight Arrow

40.97296, -117.73568

Hourly Observations for January 30, 2022

Temp ( °F °C ) Dew Point ( °F °C ) Humidity (%) Winds ( mph kmh ) Pressure ( in mb ) Visibility ( mi km ) Precip ( " mm )
12:56 am 00:56 Clear 14 -10 10 -12.2 84 84 S 5 7 30.30 1026 10 16 0.00 0.00
1:56 am 01:56 Clear 12 -11.1 8 -13.3 84 84 SSE 7 11 30.29 1026 10 16 0.00 0.00
2:56 am 02:56 Clear 15 -9.4 10 -12.2 80 80 Calm 30.28 1025 10 16 0.00 0.00
3:56 am 03:56 Clear 13 -10.6 8 -13.3 81 81 SSE 3 6 30.28 1026 10 16 0.00 0.00
4:56 am 04:56 Clear 10 -12.2 5 -15 80 80 ESE 3 6 30.32 1027 10 16 0.00 0.00
5:56 am 05:56 Clear 12 -11.1 6 -14.4 77 77 ESE 3 6 30.35 1028 10 16 0.00 0.00
6:56 am 06:56 Clear 9 -12.8 5 -15 84 84 SE 7 11 30.39 1029 10 16 0.00 0.00
7:56 am 07:56 Sunny 17 -8.3 10 -12.2 74 74 NE 3 6 30.40 1030 10 16 0.00 0.00
8:56 am 08:56 Sunny 25 -3.9 16 -8.9 69 69 Calm 30.38 1029 10 16 0.00 0.00
9:56 am 09:56 Sunny 34 1.1 17 -8.3 50 50 Calm 30.37 1028 10 16 0.00 0.00
10:56 am 10:56 Sunny 39 3.9 16 -8.9 39 39 N 3 6 30.34 1028 10 16 0.00 0.00
11:56 am 11:56 Sunny 44 6.7 16 -8.9 32 32 Calm 30.29 1026 10 16 0.00 0.00
12:56 pm 12:56 Sunny 46 7.8 16 -8.9 30 30 ENE 3 6 30.27 1025 10 16 0.00 0.00
1:56 pm 13:56 Sunny 49 9.4 18 -7.8 29 29 VRB 3 6 30.25 1024 10 16 0.00 0.00
2:56 pm 14:56 Sunny 50 10 15 -9.4 25 25 WSW 6 9 30.22 1023 10 16 0.00 0.00
3:56 pm 15:56 Sunny 49 9.4 16 -8.9 27 27 S 5 7 30.21 1023 10 16 0.00 0.00
4:56 pm 16:56 Sunny 45 7.2 18 -7.8 34 34 Calm 30.24 1024 10 16 0.00 0.00
5:56 pm 17:56 Clear 32 0 19 -7.2 59 59 SSE 7 11 30.25 1024 10 16 0.00 0.00
6:56 pm 18:56 Clear 32 0 18 -7.8 56 56 S 10 17 30.27 1025 10 16 0.00 0.00
7:56 pm 19:56 Clear 31 -0.6 19 -7.2 61 61 S 6 9 30.25 1024 10 16 0.00 0.00
8:56 pm 20:56 Clear 31 -0.6 17 -8.3 56 56 S 3 6 30.21 1023 10 16 0.00 0.00
9:56 pm 21:56 Clear 37 2.8 18 -7.8 46 46 SSW 9 15 30.15 1021 10 16 0.00 0.00
10:56 pm 22:56 Clear 38 3.3 16 -8.9 41 41 SSW 14 22 30.14 1021 10 16 0.00 0.00
11:56 pm 23:56 Partly Cloudy 42 5.6 14 -10 32 32 SSW 13 20 30.12 1020 10 16 0.00 0.00

Powered by AerisWeather